Simultaneous Nadir Overpasses (SNOs) Predictions

Prediction of SNOs between FY3D and TERRA Satellite Orbit:

Table of predicted SNOs for the next 14.0 days since TLE Epoch: 9/17/2022
Index Date (FY3D) Time (FY3D) Lat,Lon (FY3D) SZA (FY3D ) Date (TERRA) Time (TERRA) Lat,Lon (TERRA) SZA (TERRA ) Distance(km) Time Diff (sec)
1 09/19/2022 15:02:21 72.09, -45.84 70.67 09/19/2022 15:02:54 72.08, -45.81 70.66 1.71 33
2 09/19/2022 15:53:04 -71.98, 121.69 109.43 09/19/2022 15:52:24 -71.96, 121.61 109.45 3.24 40
3 09/22/2022 06:29:23 -72.09, -97.58 108.30 09/22/2022 06:29:51 -72.09, -97.55 108.30 0.87 28
4 09/22/2022 07:20:07 71.99, 69.92 71.62 09/22/2022 07:19:18 71.99, 69.91 71.61 0.73 49
5 09/24/2022 21:56:26 72.12,-149.36 72.76 09/24/2022 21:56:45 72.10,-149.28 72.75 3.17 19
6 09/24/2022 22:47:09 -72.00, 18.18 107.35 09/24/2022 22:46:15 -71.99, 18.15 107.36 1.43 54
7 09/27/2022 12:32:56 72.81, -9.80 74.46 09/27/2022 12:34:03 72.69, -7.62 74.37 73.19 67
8 09/27/2022 13:23:27 -72.08, 158.99 106.25 09/27/2022 13:23:42 -72.09, 158.94 106.24 2.83 15
9 09/27/2022 14:14:11 71.98, -33.51 73.67 09/27/2022 14:13:09 71.99, -33.61 73.67 3.33 62
10 09/30/2022 03:59:52 -72.56, -61.02 104.76 09/30/2022 04:01:02 -72.50, -59.72 104.80 43.85 70
11 09/30/2022 04:50:29 72.11, 107.19 74.82 09/30/2022 04:50:34 72.13, 107.25 74.83 2.69 5
12 09/30/2022 05:41:13 -72.04, -85.36 105.24 09/30/2022 05:40:04 -72.02, -85.31 105.27 3.07 69



Historial Predications of SNOs between FY3D and TERRA
